Weather History for Two Harbors, MN

Change the Weather History Date:

Thursday, February 28, 2013

  Actual Average Record
Temperature  
Mean Temperature 24 °F -  
Max Temperature 28 °F 31 °F 54 °F (1985)
Min Temperature 17 °F 15 °F -23 °F (1962)
Degree Days  
Heating Degree Days 42    
Moisture  
Dew Point 14 °F    
Average Humidity 65    
Maximum Humidity 74    
Minimum Humidity 53    
Precipitation  
Precipitation 0.00 in - - ()
Sea Level Pressure  
Sea Level Pressure 30.16 in    
Wind  
Wind Speed 8 mph (NE)    
Max Wind Speed 14 mph    
Max Gust Speed 20 mph    
Visibility 10 miles    
Events      
Averages and records for this station are not official NWS values.
T = Trace of Precipitation, MM = Missing Value Source: NWS Daily Summary

Daily Weather History Graph

Daily Weather History Graph

Search for Another Location

Airport:

Trip Planner

Search our weather history database for the weather conditions in past years. The results will help you decide how hot, cold, wet, or windy it might be!

Date:

Astronomy

Feb. 28, 2013 Rise Set
Actual Time 6:48 AM CST 5:51 PM CST
Civil Twilight 6:17 AM CST 6:22 PM CST
Nautical Twilight 5:42 AM CST 6:57 PM CST
Astronomical Twilight 5:07 AM CST 7:32 PM CST
Moon 9:36 PM CST (2/28) 7:43 AM CST (2/28)
Length of Visible Light 12h 04m
Length of Day
11h 03m
Waning Gibbous, 90% of the Moon is Illuminated
Feb 28
Waning Gibbous
Mar 4
Last Quarter
Mar 11
New
Mar 19
First Quarter
Mar 27
Full

Hourly Weather History & Observations

Time (CST) Temp. Windchill Dew Point Humidity Pressure Visibility Wind Dir Wind Speed Gust Speed Precip Events Conditions
12:11 AM 26.6 °F 19.1 °F 17.6 °F 69% 30.03 in 10.0 mi NNE 6.9 mph 16.1 mph N/A   Overcast
12:51 AM 26.6 °F 18.2 °F 17.6 °F 69% 30.04 in 10.0 mi NNE 8.1 mph - N/A   Overcast
1:11 AM 26.6 °F 17.5 °F 17.6 °F 69% 30.04 in 10.0 mi North 9.2 mph - N/A   Overcast
1:31 AM 26.6 °F 18.2 °F 17.6 °F 69% 30.05 in 10.0 mi NNE 8.1 mph - N/A   Overcast
1:51 AM 26.6 °F 20.0 °F 17.6 °F 69% 30.05 in 10.0 mi NNE 5.8 mph - N/A   Overcast
2:11 AM 26.6 °F 20.0 °F 15.8 °F 64% 30.05 in 10.0 mi North 5.8 mph - N/A   Overcast
2:31 AM 24.8 °F 17.9 °F 15.8 °F 69% 30.05 in 10.0 mi North 5.8 mph - N/A   Overcast
2:51 AM 24.8 °F 19.1 °F 15.8 °F 69% 30.05 in 10.0 mi North 4.6 mph - N/A   Overcast
3:11 AM 24.8 °F 16.9 °F 15.8 °F 69% 30.06 in 10.0 mi North 6.9 mph - N/A   Overcast
3:31 AM 24.8 °F 16.9 °F 15.8 °F 69% 30.06 in 10.0 mi North 6.9 mph - N/A   Overcast
3:51 AM 24.8 °F 16.1 °F 15.8 °F 69% 30.07 in 10.0 mi North 8.1 mph - N/A   Overcast
4:11 AM 24.8 °F 15.3 °F 15.8 °F 69% 30.08 in 10.0 mi NNE 9.2 mph - N/A   Overcast
4:32 AM 24.8 °F 16.9 °F 15.8 °F 69% 30.08 in 10.0 mi NNE 6.9 mph - N/A   Overcast
4:51 AM 24.8 °F 17.9 °F 15.8 °F 69% 30.09 in 10.0 mi North 5.8 mph - N/A   Overcast
5:11 AM 24.8 °F 16.9 °F 15.8 °F 69% 30.09 in 10.0 mi North 6.9 mph - N/A   Overcast
5:32 AM 24.8 °F 16.1 °F 15.8 °F 69% 30.10 in 10.0 mi North 8.1 mph - N/A   Overcast
5:51 AM 24.8 °F 17.9 °F 15.8 °F 69% 30.10 in 10.0 mi North 5.8 mph - N/A   Overcast
6:11 AM 24.8 °F 19.1 °F 15.8 °F 69% 30.11 in 10.0 mi NNE 4.6 mph - N/A   Overcast
6:32 AM 24.8 °F 15.3 °F 15.8 °F 69% 30.12 in 10.0 mi NNE 9.2 mph - N/A   Overcast
6:51 AM 23.0 °F 14.7 °F 15.8 °F 74% 30.12 in 10.0 mi NNE 6.9 mph - N/A   Overcast
7:11 AM 23.0 °F 12.4 °F 14.0 °F 68% 30.13 in 10.0 mi NNE 10.4 mph - N/A   Overcast
7:32 AM 23.0 °F 13.1 °F 14.0 °F 68% 30.14 in 10.0 mi NNE 9.2 mph - N/A   Overcast
7:51 AM 23.0 °F 15.8 °F 12.2 °F 63% 30.14 in 10.0 mi NNE 5.8 mph - N/A   Overcast
8:11 AM 23.0 °F 15.8 °F 12.2 °F 63% 30.15 in 10.0 mi North 5.8 mph - N/A   Overcast
8:32 AM 23.0 °F 13.1 °F 12.2 °F 63% 30.15 in 10.0 mi North 9.2 mph - N/A   Overcast
8:51 AM 23.0 °F 12.4 °F 12.2 °F 63% 30.16 in 10.0 mi NNE 10.4 mph - N/A   Overcast
9:11 AM 21.2 °F 11.7 °F 12.2 °F 68% 30.16 in 10.0 mi NNE 8.1 mph 17.3 mph N/A   Overcast
9:31 AM 23.0 °F 14.7 °F 12.2 °F 63% 30.16 in 10.0 mi NNE 6.9 mph 16.1 mph N/A   Overcast
9:51 AM 23.0 °F 13.1 °F 12.2 °F 63% 30.16 in 10.0 mi NE 9.2 mph - N/A   Overcast
10:11 AM 24.8 °F 14.6 °F 12.2 °F 59% 30.17 in 10.0 mi NE 10.4 mph - N/A   Overcast
10:31 AM 24.8 °F 14.6 °F 12.2 °F 59% 30.17 in 10.0 mi NE 10.4 mph 17.3 mph N/A   Overcast
10:51 AM 24.8 °F 15.3 °F 12.2 °F 59% 30.17 in 10.0 mi NE 9.2 mph - N/A   Overcast
11:11 AM 24.8 °F 12.9 °F 12.2 °F 59% 30.17 in 10.0 mi ENE 13.8 mph 17.3 mph N/A   Mostly Cloudy
11:31 AM 26.6 °F 15.2 °F 14.0 °F 59% 30.17 in 10.0 mi ENE 13.8 mph 18.4 mph N/A   Scattered Clouds
11:51 AM 26.6 °F 18.2 °F 14.0 °F 59% 30.18 in 10.0 mi NE 8.1 mph - N/A   Clear
12:31 PM 28.4 °F 19.7 °F 14.0 °F 55% 30.17 in 10.0 mi East 9.2 mph - N/A   Clear
12:51 PM 28.4 °F 18.5 °F 14.0 °F 55% 30.17 in 10.0 mi East 11.5 mph - N/A   Clear
1:11 PM 28.4 °F 18.5 °F 15.8 °F 59% 30.17 in 10.0 mi East 11.5 mph - N/A   Clear
1:31 PM 28.4 °F 17.5 °F 15.8 °F 59% 30.17 in 10.0 mi East 13.8 mph 17.3 mph N/A   Clear
1:51 PM 28.4 °F 18.0 °F 15.8 °F 59% 30.17 in 10.0 mi East 12.7 mph 19.6 mph N/A   Clear
2:11 PM 28.4 °F 18.0 °F 15.8 °F 59% 30.17 in 10.0 mi East 12.7 mph - N/A   Clear
2:31 PM 28.4 °F 18.5 °F 15.8 °F 59% 30.17 in 10.0 mi East 11.5 mph 18.4 mph N/A   Clear
2:52 PM 26.6 °F 16.2 °F 15.8 °F 64% 30.18 in 10.0 mi ENE 11.5 mph - N/A   Clear
3:11 PM 28.4 °F 18.5 °F 15.8 °F 59% 30.18 in 10.0 mi East 11.5 mph 16.1 mph N/A   Clear
3:31 PM 26.6 °F 16.8 °F 15.8 °F 64% 30.19 in 10.0 mi East 10.4 mph - N/A   Clear
3:52 PM 26.6 °F 15.2 °F 15.8 °F 64% 30.19 in 10.0 mi ENE 13.8 mph - N/A   Clear
4:11 PM 26.6 °F 16.2 °F 15.8 °F 64% 30.20 in 10.0 mi East 11.5 mph - N/A   Clear
4:31 PM 24.8 °F 14.0 °F 15.8 °F 69% 30.20 in 10.0 mi East 11.5 mph - N/A   Clear
4:51 PM 24.8 °F 14.0 °F 15.8 °F 69% 30.21 in 10.0 mi East 11.5 mph - N/A   Clear
5:11 PM 24.8 °F 15.3 °F 15.8 °F 69% 30.21 in 10.0 mi East 9.2 mph - N/A   Clear
5:31 PM 24.8 °F 16.9 °F 15.8 °F 69% 30.22 in 10.0 mi ENE 6.9 mph 10.4 mph N/A   Clear
5:51 PM 23.0 °F 18.4 °F 15.8 °F 74% 30.22 in 10.0 mi ENE 3.5 mph - N/A   Clear
6:12 PM 23.0 °F 18.4 °F 14.0 °F 68% 30.23 in 10.0 mi ENE 3.5 mph - N/A   Clear
6:31 PM 23.0 °F 18.4 °F 14.0 °F 68% 30.23 in 10.0 mi NE 3.5 mph - N/A   Clear
6:51 PM 21.2 °F 16.4 °F 14.0 °F 74% 30.24 in 10.0 mi NNE 3.5 mph - N/A   Scattered Clouds
7:11 PM 21.2 °F - 12.2 °F 68% 30.24 in 10.0 mi Calm Calm - N/A   Clear
7:31 PM 21.2 °F 16.4 °F 12.2 °F 68% 30.24 in 10.0 mi North 3.5 mph - N/A   Scattered Clouds
7:51 PM 21.2 °F 16.4 °F 12.2 °F 68% 30.24 in 10.0 mi North 3.5 mph - N/A   Scattered Clouds
8:12 PM 21.2 °F 13.6 °F 12.2 °F 68% 30.24 in 10.0 mi North 5.8 mph - N/A   Clear
8:31 PM 21.2 °F 14.9 °F 14.0 °F 74% 30.24 in 10.0 mi North 4.6 mph - N/A   Scattered Clouds
8:51 PM 21.2 °F 14.9 °F 14.0 °F 74% 30.24 in 10.0 mi North 4.6 mph - N/A   Mostly Cloudy
9:12 PM 21.2 °F 14.9 °F 12.2 °F 68% 30.25 in 10.0 mi NNE 4.6 mph - N/A   Scattered Clouds
9:31 PM 21.2 °F 13.6 °F 12.2 °F 68% 30.25 in 10.0 mi North 5.8 mph - N/A   Mostly Cloudy
9:51 PM 21.2 °F 11.7 °F 8.6 °F 58% 30.25 in 10.0 mi NNE 8.1 mph - N/A   Scattered Clouds
10:12 PM 21.2 °F 11.7 °F 6.8 °F 54% 30.25 in 10.0 mi NNE 8.1 mph - N/A   Clear
10:31 PM 19.4 °F 11.5 °F 6.8 °F 58% 30.26 in 10.0 mi NNE 5.8 mph - N/A   Clear
10:51 PM 19.4 °F 11.5 °F 5.0 °F 54% 30.26 in 10.0 mi NNE 5.8 mph - N/A   Clear
11:12 PM 19.4 °F 11.5 °F 5.0 °F 54% 30.26 in 10.0 mi NNE 5.8 mph - N/A   Clear
11:31 PM 19.4 °F 12.8 °F 5.0 °F 54% 30.26 in 10.0 mi NNE 4.6 mph - N/A   Clear
11:51 PM 17.6 °F 8.2 °F 3.2 °F 53% 30.26 in 10.0 mi NE 6.9 mph - N/A   Clear